[[{"header":{"parameterUnit":"m.s-1","parameterCategory":1,"la1":30.2991,"la2":30.254,"lo1":-89.0895,"lo2":-89.0444,"dy":0.0017,"dx":0.0017,"nx":28,"ny":28,"refTime":"2025-04-21T21:00:00:Z","depth":0,"parameterNumber":2,"parameterNumberName":"U-component_of_WINDS"},"data":[0,0,0,0,0,0,0,0,0,0,0,0,0,0,0,0,0,0,0,0,0,0,0,0,0,0,0,0,0,0,0,0,0,0,0,0,0,0,0,0,0,0,0,0,0,0,0,0,0,0,0,0,0,0,0,0,0,0,-1.308,-1.3079,0,-1.3013,-1.3012,-1.3011,-1.2952,-1.2951,-1.295,-1.295,-1.2878,-1.2877,-1.2876,0,0,0,0,0,0,0,0,0,0,0,0,0,-1.3157,-1.3156,-1.308,-1.3079,-1.3078,-1.3013,-1.3012,-1.3011,-1.2952,-1.2951,-1.295,-1.2949,-1.2879,-1.2877,-1.2876,0,0,0,0,0,0,0,0,0,0,0,0,0,-1.311,-1.3155,-1.308,-1.3041,-1.3037,-1.3013,-1.3012,-1.3011,-1.2952,-1.2951,-1.295,-1.2949,-1.2879,-1.2878,-1.2876,-1.2884,0,0,-1.287,-1.2869,0,0,0,0,0,0,0,0,-1.3113,-1.3107,-1.3048,-1.3044,-1.3039,-1.299,-1.3013,-1.2968,-1.2952,-1.2984,-1.295,-1.2949,-1.2916,-1.2911,-1.2901,-1.2881,-1.2878,-1.287,-1.2869,-1.2868,-1.2867,0,0,0,0,0,0,0,-1.3116,-1.311,-1.3053,-1.3047,-1.3042,-1.3027,-1.3019,-1.3004,-1.2957,-1.2981,-1.2977,-1.297,-1.2914,-1.2903,-1.2899,-1.2877,-1.287,-1.2868,-1.2867,-1.2866,-1.2863,-1.2864,0,0,0,0,0,0,-1.3125,-1.3113,-1.3055,-1.3051,-1.3074,-1.3026,-1.3017,-1.3006,-1.2957,-1.2948,-1.2971,-1.2967,-1.2906,-1.2901,-1.2896,-1.2903,-1.2868,-1.2866,-1.2865,-1.2862,-1.2863,-1.2864,0,0,0,0,0,0,-1.3127,-1.3121,-1.3058,-1.3081,-1.3072,-1.3026,-1.3014,-1.3006,-1.2995,-1.2949,-1.294,-1.2968,-1.2905,-1.2898,-1.2888,-1.29,-1.2865,-1.2863,-1.286,-1.2862,-1.2863,-1.2918,0,0,0,0,0,0,-1.313,-1.3122,-1.3125,-1.3081,-1.3071,-1.3052,-1.3015,-1.3005,-1.2992,-1.2987,-1.2944,-1.2936,-1.2904,-1.2891,-1.2886,-1.2897,-1.2862,-1.2859,-1.2861,-1.2863,-1.2915,-1.2921,-1.2927,0,0,0,0,0,-1.3133,-1.3142,-1.3125,-1.3119,-1.3073,-1.3053,-1.3047,-1.301,-1.2993,-1.2995,-1.2966,-1.2937,-1.29,-1.2891,-1.2885,-1.2895,-1.2858,-1.286,-1.2863,-1.2912,-1.292,-1.2927,0,0,0,0,0,0,-1.3187,-1.3136,-1.3116,-1.3112,-1.3087,-1.3043,-1.3044,-1.3019,-1.2998,-1.2994,-1.295,-1.294,-1.2935,-1.2914,-1.2905,-1.2901,-1.2875,-1.2876,-1.2915,-1.2922,-1.2928,-1.2932,-1.286,0,0,0,0,0,-1.3198,-1.3186,-1.3142,-1.3143,-1.3131,-1.3091,-1.308,-1.3055,-1.3027,-1.3016,-1.2985,-1.2959,-1.2942,-1.2931,-1.2912,-1.2912,-1.2902,-1.2916,-1.2922,-1.2927,-1.2928,-1.2928,-1.2934,-1.2872,-1.2872,-1.2872,0,0,-1.3222,-1.3192,-1.3187,-1.3153,-1.313,-1.3119,-1.3082,-1.3071,-1.3061,-1.3014,-1.3002,-1.298,-1.2948,-1.2943,-1.2939,-1.2925,-1.2944,-1.293,-1.2935,-1.2933,-1.2931,-1.2937,-1.2942,-1.2873,-1.2873,-1.2873,0,0,-1.3258,-1.3235,-1.3233,-1.3212,-1.318,-1.3153,-1.3153,-1.3113,-1.3096,-1.3084,-1.3049,-1.3037,-1.3007,-1.2986,-1.2972,-1.3003,-1.2976,-1.2999,-1.3028,-1.3028,-1.3033,-1.3037,-1.3049,-1.3053,-1.3,-1.3,-1.3,0,-1.3291,-1.3272,-1.3235,-1.3226,-1.3213,-1.3171,-1.3169,-1.315,-1.3113,-1.3104,-1.3089,-1.3052,-1.3028,-1.3018,-1.3026,-1.3016,-1.3014,-1.3002,-1.3036,-1.3039,-1.3043,-1.3053,-1.3057,-1.3003,-1.3003,-1.3002,-1.3002,0,-1.3314,-1.3302,-1.3304,-1.3271,-1.3257,-1.3252,-1.3214,-1.3205,-1.3182,-1.3157,-1.3146,-1.3116,-1.309,-1.3086,-1.3063,-1.3074,-1.3066,-1.3044,-1.3017,-1.3052,-1.3061,-1.3065,-1.3007,-1.3006,-1.3005,-1.3005,0,0,-1.338,-1.3328,-1.3329,-1.3314,-1.3277,-1.3266,-1.326,-1.3236,-1.323,-1.3206,-1.3199,-1.3177,-1.3157,-1.3141,-1.3114,-1.3115,-1.3142,-1.3093,-1.3091,-1.3103,-1.3153,-1.3169,-1.3174,-1.3125,-1.3125,-1.3126,-1.3155,0,-1.341,-1.3396,-1.3363,-1.3359,-1.3348,-1.3309,-1.3304,-1.328,-1.3257,-1.3244,-1.3218,-1.3203,-1.3178,-1.3168,-1.3167,-1.3139,-1.3151,-1.3137,-1.3117,-1.3117,-1.3126,-1.3178,-1.3195,-1.3224,-1.3159,-1.3159,-1.3159,0,-1.3442,-1.3422,-1.3417,-1.3382,-1.3376,-1.3372,-1.3348,-1.3336,-1.3309,-1.3293,-1.3276,-1.3248,-1.3239,-1.3215,-1.3203,-1.3194,-1.3184,-1.317,-1.317,-1.3166,-1.314,-1.3175,-1.3233,-1.3237,-1.3165,-1.3164,-1.3164,0,-1.349,-1.3463,-1.3456,-1.3445,-1.3403,-1.3401,-1.3384,-1.3356,-1.3344,-1.3324,-1.3316,-1.3295,-1.3283,-1.3268,-1.3235,-1.322,-1.3226,-1.3199,-1.3212,-1.3213,-1.3213,-1.3213,-1.3269,-1.3209,-1.3209,-1.3209,-1.3209,0,-1.3526,-1.3525,-1.3478,-1.3474,-1.3472,-1.3435,-1.3434,-1.3413,-1.3389,-1.338,-1.3345,-1.3338,-1.3296,-1.3283,-1.3258,-1.3251,-1.3246,-1.3233,-1.3226,-1.3235,-1.3237,-1.3227,-1.3224,-1.321,-1.321,-1.3209,-1.3209,0,-1.3579,-1.3547,-1.3538,-1.3501,-1.3491,-1.3491,-1.3459,-1.3454,-1.343,-1.342,-1.3415,-1.3377,-1.3361,-1.3328,-1.3302,-1.3285,-1.3285,-1.3273,-1.3294,-1.329,-1.3304,-1.3303,-1.3355,-1.336,-1.3297,-1.3298,-1.3299,0,-1.3603,-1.3601,-1.3564,-1.3557,-1.3541,-1.3529,-1.3517,-1.3482,-1.3472,-1.3442,-1.3441,-1.3423,-1.3406,-1.3382,-1.3352,-1.3333,-1.332,-1.334,-1.3317,-1.3327,-1.332,-1.332,-1.332,-1.3344,-1.3345,-1.3346,-1.3347,0,-1.365,-1.3635,-1.362,-1.3601,-1.3589,-1.3571,-1.3552,-1.3548,-1.3508,-1.3498,-1.3482,-1.3469,-1.3444,-1.3427,-1.3403,-1.3385,-1.3359,-1.3355,-1.3356,-1.3365,-1.3378,-1.3371,-1.3307,-1.3353,-1.3352,-1.3352,-1.3351,-1.3351,-1.3689,-1.3686,-1.366,-1.3645,-1.3627,-1.361,-1.3604,-1.3581,-1.3567,-1.3544,-1.3524,-1.3511,-1.3485,-1.3451,-1.3435,-1.3424,-1.3411,-1.3413,-1.3414,-1.3415,-1.3419,-1.3381,-1.3419,-1.3419,-1.3419,-1.3419,-1.3419,0,-1.3733,-1.3715,-1.3702,-1.3677,-1.3666,-1.3644,-1.3622,-1.3614,-1.3602,-1.3581,-1.3566,-1.3549,-1.3532,-1.3502,-1.3483,-1.3479,-1.3467,-1.3475,-1.3475,-1.3471,-1.3432,-1.3432,-1.3486,-1.3486,-1.3486,-1.3486,-1.3486,-1.3486,-1.3755,-1.3749,-1.3732,-1.3717,-1.3699,-1.3686,-1.3675,-1.366,-1.3643,-1.3625,-1.3611,-1.3592,-1.3568,-1.3547,-1.3531,-1.3522,-1.3517,-1.3529,-1.3517,-1.348,-1.3474,-1.3468,-1.3468,-1.3528,-1.3528,-1.3557,-1.3557,-1.3557]},{"header":{"parameterUnit":"m.s-1","parameterCategory":1,"la1":30.2991,"la2":30.254,"lo1":-89.0895,"lo2":-89.0444,"dy":0.0017,"dx":0.0017,"nx":28,"ny":28,"refTime":"2025-04-21T21:00:00:Z","depth":0,"parameterNumber":3,"parameterNumberName":"V-component_of_WINDS"},"data":[0,0,0,0,0,0,0,0,0,0,0,0,0,0,0,0,0,0,0,0,0,0,0,0,0,0,0,0,0,0,0,0,0,0,0,0,0,0,0,0,0,0,0,0,0,0,0,0,0,0,0,0,0,0,0,0,0,0,2.9542,2.9542,0,2.9561,2.9561,2.9561,2.9619,2.962,2.9622,2.9623,2.9636,2.9635,2.9635,0,0,0,0,0,0,0,0,0,0,0,0,0,2.9552,2.9552,2.9542,2.9542,2.9543,2.9561,2.9561,2.9561,2.9619,2.962,2.9622,2.9623,2.9636,2.9635,2.9634,0,0,0,0,0,0,0,0,0,0,0,0,0,2.9557,2.9552,2.9542,2.9574,2.9577,2.9561,2.9561,2.9561,2.9618,2.962,2.9622,2.9624,2.9637,2.9636,2.9634,2.9588,0,0,2.963,2.963,0,0,0,0,0,0,0,0,2.9557,2.9557,2.9569,2.9572,2.9575,2.959,2.957,2.957,2.9618,2.9602,2.9623,2.9625,2.9619,2.9619,2.9618,2.9588,2.9589,2.963,2.963,2.9629,2.9629,0,0,0,0,0,0,0,2.9556,2.9556,2.9549,2.9569,2.9573,2.9586,2.9588,2.957,2.9599,2.9604,2.9608,2.961,2.9621,2.9619,2.9619,2.9589,2.963,2.9629,2.9628,2.9628,2.9523,2.9521,0,0,0,0,0,0,2.9552,2.9555,2.9549,2.955,2.9571,2.9584,2.9587,2.9583,2.96,2.9604,2.9608,2.9612,2.962,2.962,2.962,2.9567,2.9629,2.9628,2.9627,2.9525,2.9522,2.952,0,0,0,0,0,0,2.9552,2.9551,2.9548,2.9554,2.9555,2.9582,2.9576,2.9582,2.9581,2.9603,2.9608,2.9602,2.9622,2.9621,2.9596,2.9568,2.9627,2.9626,2.9527,2.9524,2.9521,2.9459,0,0,0,0,0,0,2.9552,2.9551,2.9534,2.9553,2.9554,2.9525,2.9575,2.9581,2.9579,2.9585,2.9598,2.9602,2.9623,2.9597,2.9594,2.9567,2.9625,2.953,2.9526,2.9522,2.9464,2.9455,2.9447,0,0,0,0,0,2.9552,2.9514,2.9533,2.9532,2.9534,2.9523,2.9524,2.9551,2.9577,2.956,2.9574,2.9602,2.9572,2.9594,2.9591,2.9563,2.9531,2.9527,2.9522,2.9468,2.9456,2.9447,0,0,0,0,0,0,2.9489,2.9517,2.9538,2.9506,2.9512,2.9533,2.9512,2.9537,2.9535,2.954,2.9572,2.9574,2.9544,2.9551,2.9576,2.9519,2.9556,2.9551,2.9516,2.9505,2.9496,2.9495,2.9624,0,0,0,0,0,2.9472,2.9462,2.9487,2.9456,2.9458,2.9485,2.9481,2.9501,2.9508,2.951,2.9523,2.9527,2.9519,2.9513,2.9506,2.9466,2.9469,2.9445,2.9436,2.9429,2.9424,2.9403,2.9393,2.9505,2.9505,2.9505,0,0,2.9434,2.9449,2.9441,2.9443,2.9451,2.9439,2.9486,2.9471,2.9462,2.9508,2.9485,2.9494,2.9501,2.9468,2.9454,2.9473,2.9394,2.9423,2.9417,2.9416,2.9398,2.9387,2.9377,2.9502,2.9502,2.9503,0,0,2.9361,2.9372,2.9347,2.9354,2.9366,2.9384,2.9378,2.9396,2.9404,2.9383,2.9417,2.9406,2.9391,2.9395,2.9394,2.9325,2.935,2.9322,2.9275,2.9255,2.9246,2.9239,2.9214,2.9204,2.9316,2.9316,2.9316,0,2.9314,2.9299,2.9331,2.9315,2.9315,2.9358,2.9333,2.9337,2.9345,2.9343,2.9365,2.9348,2.9356,2.9324,2.9308,2.9306,2.93,2.932,2.9245,2.9238,2.9231,2.9208,2.9198,2.9313,2.9313,2.9314,2.9314,0,2.9239,2.9228,2.9207,2.9216,2.9214,2.9193,2.9221,2.9215,2.9236,2.9252,2.9229,2.924,2.9237,2.9231,2.925,2.9203,2.9214,2.924,2.9277,2.9217,2.9195,2.9186,2.9308,2.9309,2.931,2.9311,0,0,2.9125,2.9154,2.9145,2.915,2.9167,2.9158,2.9139,2.9139,2.9132,2.9136,2.9121,2.9108,2.9133,2.9133,2.9153,2.9136,2.908,2.9164,2.9165,2.9147,2.9028,2.9008,2.8997,2.9097,2.9096,2.9094,2.9027,0,2.9056,2.9027,2.9056,2.9021,2.9011,2.9053,2.9036,2.9044,2.9058,2.9051,2.9066,2.9057,2.909,2.9091,2.9075,2.909,2.9056,2.9095,2.9082,2.9081,2.9078,2.8985,2.8964,2.89,2.9019,2.9017,2.9016,0,2.8971,2.8973,2.8937,2.8958,2.8954,2.8939,2.8941,2.8934,2.8944,2.8955,2.8956,2.8982,2.8964,2.9002,2.8977,2.9003,2.8999,2.9006,2.9004,2.9003,2.9044,2.8981,2.888,2.887,2.9003,2.9004,2.9005,0,2.8891,2.8885,2.8863,2.8866,2.8889,2.8877,2.8886,2.8898,2.8896,2.8897,2.8896,2.8894,2.8893,2.8891,2.8915,2.894,2.8887,2.8927,2.8895,2.8895,2.8881,2.8882,2.8777,2.888,2.888,2.888,2.888,0,2.881,2.8786,2.8828,2.8814,2.8789,2.8823,2.8796,2.8809,2.8819,2.8808,2.8843,2.8832,2.8865,2.8857,2.8876,2.8852,2.8852,2.886,2.8865,2.8856,2.8855,2.8853,2.8858,2.8878,2.8878,2.8879,2.8879,0,2.8715,2.8743,2.8722,2.8746,2.8752,2.8732,2.8752,2.874,2.8757,2.8743,2.8741,2.8768,2.876,2.8785,2.878,2.8793,2.8759,2.8772,2.8756,2.876,2.8727,2.873,2.8617,2.8604,2.8716,2.8715,2.8714,0,2.8662,2.8645,2.8668,2.8664,2.8672,2.8664,2.8663,2.8696,2.8693,2.8704,2.869,2.8686,2.8684,2.8669,2.8687,2.8684,2.8697,2.8658,2.8696,2.8688,2.8696,2.8696,2.8694,2.8649,2.8648,2.8647,2.8646,0,2.8563,2.8578,2.8576,2.8579,2.8577,2.858,2.8586,2.858,2.8616,2.861,2.8604,2.8603,2.86,2.8594,2.8596,2.8603,2.8629,2.8634,2.8626,2.8617,2.8609,2.8612,2.8734,2.8636,2.8637,2.8637,2.8638,2.8638,2.8488,2.8475,2.849,2.8487,2.8495,2.8499,2.849,2.8507,2.8503,2.8504,2.8524,2.8513,2.8524,2.8529,2.8534,2.8525,2.8543,2.8532,2.8529,2.8526,2.8521,2.8611,2.8526,2.8526,2.8526,2.8526,2.8527,0,2.8391,2.8403,2.84,2.8408,2.8405,2.8433,2.8441,2.8436,2.8428,2.8436,2.8435,2.8427,2.8423,2.8442,2.844,2.8429,2.8442,2.8428,2.8428,2.843,2.8505,2.8511,2.8418,2.8418,2.8418,2.8418,2.8418,2.8418,2.834,2.8321,2.8338,2.8322,2.8334,2.8326,2.8328,2.8332,2.834,2.8331,2.8328,2.8341,2.8354,2.8353,2.835,2.8356,2.8353,2.8335,2.8344,2.8414,2.8424,2.8434,2.8441,2.8334,2.8334,2.827,2.8269,2.8269]}]]